PUA1502 SUMU-SAZM

Flight info

Callsign PUA1502
Flight time 0h 44m
Altitude 22000
Route DARKA A310 ROPIS ROPIS2U
Aircraft A320/M-SDE3FGHIRWY/LB1

Departure

Time 2026-04-26 17:40
Airport Carrasco General Cesáreo L. Berisso International Airport (SUMU)

Arrival

Time 2026-04-26 18:25
Airport Ástor Piazzola International Airport (SAZM)
Time Latitude Longitude Altitude Speed Heading
2026-04-26 17:20 -34.83677 -56.01864 86 ft 0 kts 143°
2026-04-26 17:26 -34.83677 -56.01865 82 ft 0 kts 143°
2026-04-26 17:29 -34.83676 -56.01865 82 ft 0 kts 143°
2026-04-26 17:32 -34.83667 -56.01873 86 ft 4 kts 142°
2026-04-26 17:32 -34.83646 -56.01894 87 ft 4 kts 137°
2026-04-26 17:32 -34.83627 -56.01917 85 ft 4 kts 129°
2026-04-26 17:32 -34.83617 -56.01934 86 ft 4 kts 114°
2026-04-26 17:33 -34.83613 -56.01960 84 ft 2 kts 54°
2026-04-26 17:33 -34.83616 -56.01966 84 ft 0 kts 53°
2026-04-26 17:34 -34.83617 -56.01966 84 ft 0 kts 53°
2026-04-26 17:36 -34.83611 -56.01957 84 ft 5 kts 53°
2026-04-26 17:36 -34.83582 -56.01910 84 ft 8 kts 53°
2026-04-26 17:37 -34.83544 -56.01848 87 ft 10 kts 53°
2026-04-26 17:37 -34.83498 -56.01776 84 ft 12 kts 42°
2026-04-26 17:37 -34.83424 -56.01793 84 ft 13 kts 318°
2026-04-26 17:38 -34.83279 -56.01825 86 ft 13 kts 49°
2026-04-26 17:38 -34.83222 -56.01726 84 ft 15 kts 56°
2026-04-26 17:38 -34.83157 -56.01617 83 ft 17 kts 52°
2026-04-26 17:38 -34.83080 -56.01500 84 ft 19 kts 51°
2026-04-26 17:39 -34.82998 -56.01369 83 ft 20 kts 54°
2026-04-26 17:39 -34.82912 -56.01224 83 ft 22 kts 53°
2026-04-26 17:39 -34.82788 -56.01134 83 ft 23 kts 356°
2026-04-26 17:39 -34.82708 -56.01227 84 ft 17 kts 247°
2026-04-26 17:40 -34.82850 -56.01458 85 ft 64 kts 234°
2026-04-26 17:40 -34.83078 -56.01834 83 ft 102 kts 233°
2026-04-26 17:40 -34.83805 -56.03022 215 ft 149 kts 235°
2026-04-26 17:40 -34.84436 -56.04027 813 ft 150 kts 237°
2026-04-26 17:41 -34.85054 -56.05044 1478 ft 152 kts 238°
2026-04-26 17:41 -34.85804 -56.06062 1788 ft 178 kts 219°
2026-04-26 17:41 -34.86995 -56.06749 2082 ft 205 kts 208°
2026-04-26 17:41 -34.88448 -56.07349 2549 ft 230 kts 206°
2026-04-26 17:42 -34.89983 -56.07936 3021 ft 237 kts 206°
2026-04-26 17:42 -34.91558 -56.08537 3518 ft 238 kts 206°
2026-04-26 17:42 -34.93139 -56.09160 3999 ft 240 kts 207°
2026-04-26 17:42 -34.94731 -56.09811 4405 ft 241 kts 207°
2026-04-26 17:43 -34.96313 -56.10473 4737 ft 241 kts 208°
2026-04-26 17:43 -34.97899 -56.11148 5101 ft 242 kts 208°
2026-04-26 17:43 -34.99485 -56.11828 5463 ft 244 kts 208°
2026-04-26 17:43 -35.01103 -56.12520 5813 ft 246 kts 208°
2026-04-26 17:44 -35.02724 -56.13216 6189 ft 248 kts 209°
2026-04-26 17:44 -35.04351 -56.13920 6481 ft 249 kts 209°
2026-04-26 17:44 -35.05988 -56.14632 6782 ft 250 kts 210°
2026-04-26 17:44 -35.07631 -56.15349 7088 ft 252 kts 210°
2026-04-26 17:45 -35.09288 -56.16069 7381 ft 253 kts 210°
2026-04-26 17:45 -35.10952 -56.16793 7684 ft 255 kts 210°
2026-04-26 17:45 -35.12637 -56.17528 8010 ft 258 kts 211°
2026-04-26 17:45 -35.14337 -56.18268 8347 ft 261 kts 211°
2026-04-26 17:46 -35.16054 -56.19016 8689 ft 262 kts 211°
2026-04-26 17:46 -35.17777 -56.19766 9024 ft 264 kts 211°
2026-04-26 17:46 -35.19511 -56.20518 9377 ft 266 kts 211°
2026-04-26 17:46 -35.21272 -56.21287 9731 ft 275 kts 212°
2026-04-26 17:47 -35.23092 -56.22087 10057 ft 289 kts 211°
2026-04-26 17:47 -35.24398 -56.22652 10272 ft 302 kts 210°
2026-04-26 17:47 -35.27112 -56.23836 10865 ft 318 kts 211°
2026-04-26 17:47 -35.29207 -56.24774 11535 ft 323 kts 211°
2026-04-26 17:48 -35.31323 -56.25748 12222 ft 327 kts 212°
2026-04-26 17:48 -35.33454 -56.26752 12922 ft 330 kts 212°
2026-04-26 17:48 -35.35603 -56.27779 13628 ft 333 kts 212°
2026-04-26 17:48 -35.37761 -56.28818 14268 ft 335 kts 213°
2026-04-26 17:49 -35.39934 -56.29867 14922 ft 336 kts 213°
2026-04-26 17:49 -35.42108 -56.30916 15590 ft 337 kts 213°
2026-04-26 17:49 -35.44292 -56.31969 16270 ft 338 kts 213°
2026-04-26 17:49 -35.46486 -56.33028 16973 ft 339 kts 213°
2026-04-26 17:50 -35.48682 -56.34089 17685 ft 339 kts 213°
2026-04-26 17:50 -35.50878 -56.35151 18364 ft 339 kts 213°
2026-04-26 17:50 -35.53074 -56.36215 18998 ft 339 kts 214°
2026-04-26 17:50 -35.55260 -56.37281 19639 ft 338 kts 215°
2026-04-26 17:51 -35.57484 -56.38373 19872 ft 352 kts 215°
2026-04-26 17:51 -35.59792 -56.39515 20138 ft 362 kts 214°
2026-04-26 17:51 -35.62152 -56.40666 20594 ft 366 kts 214°
2026-04-26 17:51 -35.64529 -56.41813 21112 ft 369 kts 214°
2026-04-26 17:52 -35.66923 -56.42963 21613 ft 370 kts 215°
2026-04-26 17:52 -35.69297 -56.44103 21754 ft 373 kts 215°
2026-04-26 17:52 -35.71730 -56.45282 21790 ft 377 kts 214°
2026-04-26 17:52 -35.74175 -56.46472 21782 ft 379 kts 214°
2026-04-26 17:53 -35.76629 -56.47671 21772 ft 380 kts 214°
2026-04-26 17:53 -35.79060 -56.48851 21778 ft 372 kts 214°
2026-04-26 17:53 -35.81461 -56.50016 21774 ft 370 kts 214°
2026-04-26 17:54 -35.86244 -56.52347 21770 ft 370 kts 213°
2026-04-26 17:54 -35.88642 -56.53517 21768 ft 371 kts 213°
2026-04-26 17:54 -35.91043 -56.54692 21775 ft 371 kts 213°
2026-04-26 17:54 -35.93448 -56.55871 21775 ft 372 kts 213°
2026-04-26 17:55 -35.95854 -56.57054 21772 ft 373 kts 212°
2026-04-26 17:55 -35.98262 -56.58238 21771 ft 373 kts 212°
2026-04-26 17:55 -36.00676 -56.59421 21772 ft 373 kts 212°
2026-04-26 17:55 -36.03093 -56.60605 21771 ft 374 kts 212°
2026-04-26 17:56 -36.05511 -56.61789 21762 ft 374 kts 211°
2026-04-26 17:56 -36.10348 -56.64164 21765 ft 375 kts 211°
2026-04-26 17:57 -36.15166 -56.66533 21769 ft 375 kts 211°
2026-04-26 17:57 -36.17595 -56.67728 21769 ft 376 kts 211°
2026-04-26 17:57 -36.20025 -56.68927 21770 ft 376 kts 210°
2026-04-26 17:57 -36.22456 -56.70125 21772 ft 376 kts 210°
2026-04-26 17:58 -36.29746 -56.73735 21770 ft 376 kts 209°
2026-04-26 17:59 -36.34614 -56.76141 21767 ft 377 kts 209°
2026-04-26 17:59 -36.37045 -56.77342 21772 ft 377 kts 209°
2026-04-26 17:59 -36.39483 -56.78551 21773 ft 377 kts 208°
2026-04-26 17:59 -36.41917 -56.79761 21767 ft 377 kts 208°
2026-04-26 18:00 -36.44351 -56.80972 21769 ft 377 kts 208°
2026-04-26 18:00 -36.46784 -56.82180 21764 ft 377 kts 208°
2026-04-26 18:00 -36.49218 -56.83389 21756 ft 377 kts 208°
2026-04-26 18:00 -36.51653 -56.84599 21758 ft 377 kts 208°
2026-04-26 18:01 -36.54052 -56.85790 21758 ft 376 kts 207°
2026-04-26 18:01 -36.56485 -56.86997 21760 ft 376 kts 207°
2026-04-26 18:01 -36.58913 -56.88205 21764 ft 376 kts 207°
2026-04-26 18:01 -36.61343 -56.89418 21764 ft 376 kts 207°
2026-04-26 18:02 -36.63770 -56.90631 21756 ft 376 kts 207°
2026-04-26 18:02 -36.65398 -56.91443 21741 ft 369 kts 207°
2026-04-26 18:02 -36.68519 -56.92996 21731 ft 363 kts 207°
2026-04-26 18:02 -36.70853 -56.94163 21732 ft 362 kts 207°
2026-04-26 18:03 -36.73193 -56.95336 21728 ft 362 kts 207°
2026-04-26 18:03 -36.75526 -56.96509 21731 ft 362 kts 207°
2026-04-26 18:03 -36.77856 -56.97698 21729 ft 362 kts 207°
2026-04-26 18:03 -36.80180 -56.98895 21723 ft 362 kts 207°
2026-04-26 18:04 -36.82508 -57.00095 21723 ft 362 kts 206°
2026-04-26 18:04 -36.84834 -57.01291 21718 ft 362 kts 206°
2026-04-26 18:04 -36.87161 -57.02485 21720 ft 362 kts 206°
2026-04-26 18:05 -36.91776 -57.04851 21328 ft 352 kts 206°
2026-04-26 18:05 -36.93968 -57.05971 21162 ft 329 kts 206°
2026-04-26 18:05 -36.96051 -57.07038 20917 ft 320 kts 206°
2026-04-26 18:05 -36.98093 -57.08089 20654 ft 316 kts 206°
2026-04-26 18:06 -37.00121 -57.09138 20391 ft 315 kts 206°
2026-04-26 18:06 -37.02142 -57.10184 20126 ft 313 kts 206°
2026-04-26 18:06 -37.04148 -57.11221 19869 ft 312 kts 206°
2026-04-26 18:06 -37.06147 -57.12254 19605 ft 310 kts 206°
2026-04-26 18:07 -37.08137 -57.13282 19359 ft 309 kts 206°
2026-04-26 18:07 -37.10119 -57.14303 19104 ft 307 kts 206°
2026-04-26 18:07 -37.12089 -57.15320 18856 ft 306 kts 206°
2026-04-26 18:07 -37.13389 -57.15993 18686 ft 305 kts 206°
2026-04-26 18:08 -37.16009 -57.17353 18168 ft 305 kts 206°
2026-04-26 18:08 -37.17970 -57.18372 17686 ft 305 kts 206°
2026-04-26 18:08 -37.19934 -57.19389 17202 ft 306 kts 206°
2026-04-26 18:08 -37.21898 -57.20406 16741 ft 305 kts 206°
2026-04-26 18:09 -37.23835 -57.21410 16291 ft 305 kts 206°
2026-04-26 18:09 -37.25793 -57.22424 15837 ft 304 kts 206°
2026-04-26 18:09 -37.27749 -57.23438 15395 ft 304 kts 206°
2026-04-26 18:09 -37.29701 -57.24454 14950 ft 303 kts 206°
2026-04-26 18:10 -37.31648 -57.25470 14514 ft 303 kts 206°
2026-04-26 18:10 -37.33594 -57.26485 14092 ft 302 kts 206°
2026-04-26 18:10 -37.35533 -57.27495 13673 ft 302 kts 207°
2026-04-26 18:10 -37.37473 -57.28504 13229 ft 301 kts 207°
2026-04-26 18:11 -37.39408 -57.29509 12765 ft 301 kts 207°
2026-04-26 18:11 -37.41385 -57.30383 12304 ft 303 kts 198°
2026-04-26 18:11 -37.43492 -57.30740 11855 ft 309 kts 186°
2026-04-26 18:11 -37.45646 -57.30515 11410 ft 315 kts 174°
2026-04-26 18:12 -37.47784 -57.29887 10966 ft 315 kts 172°
2026-04-26 18:12 -37.49913 -57.29257 10540 ft 314 kts 173°
2026-04-26 18:12 -37.52040 -57.28633 10115 ft 313 kts 173°
2026-04-26 18:12 -37.54161 -57.28013 9697 ft 313 kts 173°
2026-04-26 18:13 -37.56071 -57.27455 9291 ft 312 kts 173°
2026-04-26 18:13 -37.58188 -57.26832 8823 ft 312 kts 173°
2026-04-26 18:13 -37.60294 -57.26210 8377 ft 311 kts 173°
2026-04-26 18:13 -37.61687 -57.25799 8087 ft 310 kts 173°
2026-04-26 18:14 -37.64489 -57.24977 7497 ft 308 kts 174°
2026-04-26 18:14 -37.66575 -57.24367 7065 ft 307 kts 174°
2026-04-26 18:14 -37.68653 -57.23754 6634 ft 306 kts 174°
2026-04-26 18:14 -37.70721 -57.23142 6209 ft 305 kts 174°
2026-04-26 18:15 -37.72780 -57.22533 5782 ft 303 kts 174°
2026-04-26 18:15 -37.74832 -57.21968 5323 ft 298 kts 180°
2026-04-26 18:15 -37.76822 -57.21997 4902 ft 284 kts 197°
2026-04-26 18:15 -37.78687 -57.22738 4455 ft 273 kts 212°
2026-04-26 18:16 -37.80357 -57.23786 4011 ft 271 kts 213°
2026-04-26 18:16 -37.83750 -57.25902 3125 ft 269 kts 213°
2026-04-26 18:16 -37.85407 -57.26935 2717 ft 268 kts 213°
2026-04-26 18:17 -37.87008 -57.27920 2638 ft 243 kts 213°
2026-04-26 18:17 -37.88452 -57.28800 2635 ft 218 kts 214°
2026-04-26 18:17 -37.89750 -57.29598 2637 ft 199 kts 216°
2026-04-26 18:17 -37.90970 -57.30365 2640 ft 194 kts 216°
2026-04-26 18:18 -37.92170 -57.31126 2642 ft 192 kts 216°
2026-04-26 18:18 -37.93365 -57.31884 2639 ft 192 kts 216°
2026-04-26 18:18 -37.94526 -57.32697 2638 ft 189 kts 223°
2026-04-26 18:18 -37.95615 -57.33657 2486 ft 191 kts 223°
2026-04-26 18:19 -37.96679 -57.34583 2247 ft 180 kts 223°
2026-04-26 18:19 -37.97687 -57.35454 2016 ft 172 kts 223°
2026-04-26 18:19 -37.98659 -57.36297 1793 ft 167 kts 224°
2026-04-26 18:19 -37.99612 -57.37127 1723 ft 166 kts 224°
2026-04-26 18:20 -38.00559 -57.37954 1694 ft 165 kts 224°
2026-04-26 18:20 -38.01479 -57.38818 1691 ft 160 kts 235°
2026-04-26 18:20 -38.01884 -57.40053 1693 ft 153 kts 269°
2026-04-26 18:20 -38.01854 -57.40487 1694 ft 154 kts 279°
2026-04-26 18:21 -38.00897 -57.42497 1710 ft 159 kts 295°
2026-04-26 18:21 -38.00337 -57.43588 1701 ft 143 kts 295°
2026-04-26 18:21 -37.99817 -57.44620 1694 ft 136 kts 294°
2026-04-26 18:21 -37.99315 -57.45623 1697 ft 133 kts 294°
2026-04-26 18:22 -37.98822 -57.46608 1699 ft 132 kts 294°
2026-04-26 18:22 -37.98328 -57.47595 1639 ft 133 kts 294°
2026-04-26 18:22 -37.97836 -57.48572 1490 ft 128 kts 294°
2026-04-26 18:22 -37.97362 -57.49510 1344 ft 126 kts 294°
2026-04-26 18:23 -37.96894 -57.50438 1171 ft 124 kts 293°
2026-04-26 18:23 -37.96432 -57.51356 1006 ft 124 kts 293°
2026-04-26 18:23 -37.95969 -57.52279 826 ft 124 kts 295°
2026-04-26 18:23 -37.95502 -57.53203 663 ft 125 kts 296°
2026-04-26 18:24 -37.95034 -57.54129 489 ft 125 kts 298°
2026-04-26 18:24 -37.94563 -57.55058 324 ft 124 kts 297°
2026-04-26 18:24 -37.94109 -57.55974 215 ft 124 kts 297°
2026-04-26 18:24 -37.93643 -57.56890 89 ft 122 kts 297°
2026-04-26 18:25 -37.93212 -57.57734 51 ft 100 kts 299°
2026-04-26 18:25 -37.92978 -57.58210 52 ft 23 kts 304°
2026-04-26 18:25 -37.92941 -57.58361 50 ft 18 kts 229°
2026-04-26 18:25 -37.92951 -57.58374 52 ft 0 kts 224°
2026-04-26 18:26 -37.92958 -57.58368 52 ft 3 kts 141°
2026-04-26 18:26 -37.92946 -57.58287 52 ft 14 kts 99°
2026-04-26 18:26 -37.93004 -57.58147 53 ft 20 kts 124°
2026-04-26 18:26 -37.93082 -57.57996 53 ft 21 kts 121°
2026-04-26 18:27 -37.93154 -57.57978 54 ft 5 kts 212°
2026-04-26 18:27 -37.93196 -57.58013 54 ft 9 kts 212°
2026-04-26 18:27 -37.93262 -57.58038 52 ft 12 kts 168°
2026-04-26 18:27 -37.93343 -57.58019 54 ft 12 kts 179°
2026-04-26 18:28 -37.93352 -57.58059 54 ft 7 kts 326°
2026-04-26 18:28 -37.93331 -57.58072 54 ft 0 kts 333°